Time,TemperatureF,DewpointF,PressureIn,WindDirection,WindDirectionDegrees,WindSpeedMPH,WindSpeedGustMPH,Humidity,HourlyPrecipIn,Conditions,Clouds,dailyrainin,SoftwareType,DateUTC
2013-05-02 00:03:00,45.0,40.0,30.44,WSW,238,0.0,0.0,84,0.00,,,0.00,,2013-05-02 04:03:00,
2013-05-02 00:12:00,44.0,39.0,30.44,WSW,238,0.0,0.0,84,0.00,,,0.00,,2013-05-02 04:12:00,
2013-05-02 00:23:00,44.0,39.0,30.44,WSW,238,0.0,0.0,84,0.00,,,0.00,,2013-05-02 04:23:00,
2013-05-02 00:33:00,44.0,40.0,30.44,WSW,238,0.0,0.0,86,0.00,,,0.00,,2013-05-02 04:33:00,
2013-05-02 00:42:00,44.0,40.0,30.44,WSW,238,0.0,0.0,86,0.00,,,0.00,,2013-05-02 04:42:00,
2013-05-02 00:52:00,44.0,40.0,30.43,WSW,238,0.0,0.0,87,0.00,,,0.00,,2013-05-02 04:52:00,
2013-05-02 01:02:00,43.0,40.0,30.44,WSW,238,0.0,0.0,88,0.00,,,0.00,,2013-05-02 05:02:00,
2013-05-02 01:12:00,43.0,40.0,30.44,WSW,238,0.0,0.0,88,0.00,,,0.00,,2013-05-02 05:12:00,
2013-05-02 01:22:00,43.0,40.0,30.43,WSW,238,0.0,0.0,88,0.00,,,0.00,,2013-05-02 05:22:00,
2013-05-02 01:32:00,43.0,40.0,30.42,WSW,238,0.0,0.0,89,0.00,,,0.00,,2013-05-02 05:32:00,
2013-05-02 01:42:00,43.0,40.0,30.42,WSW,238,0.0,0.0,89,0.00,,,0.00,,2013-05-02 05:42:00,
2013-05-02 01:52:00,43.0,40.0,30.42,WSW,238,0.0,0.0,89,0.00,,,0.00,,2013-05-02 05:52:00,
2013-05-02 02:01:00,43.0,40.0,30.41,WSW,238,0.0,0.0,90,0.00,,,0.00,,2013-05-02 06:01:00,
2013-05-02 02:12:00,43.0,40.0,30.41,WSW,238,0.0,0.0,90,0.00,,,0.00,,2013-05-02 06:12:00,
2013-05-02 02:21:00,43.0,40.0,30.41,WSW,238,0.0,0.0,90,0.00,,,0.00,,2013-05-02 06:21:00,
2013-05-02 02:32:00,42.0,39.0,30.41,WSW,238,0.0,0.0,90,0.00,,,0.00,,2013-05-02 06:32:00,
2013-05-02 02:42:00,42.0,39.0,30.41,WSW,238,0.0,0.0,90,0.00,,,0.00,,2013-05-02 06:42:00,
2013-05-02 02:52:00,42.0,40.0,30.39,WSW,238,0.0,0.0,91,0.00,,,0.00,,2013-05-02 06:52:00,
2013-05-02 03:02:00,42.0,40.0,30.39,WSW,238,0.0,0.0,91,0.00,,,0.00,,2013-05-02 07:02:00,
2013-05-02 03:11:00,42.0,40.0,30.39,WSW,238,0.0,0.0,91,0.00,,,0.00,,2013-05-02 07:11:00,
2013-05-02 03:21:00,42.0,40.0,30.39,WSW,238,0.0,0.0,92,0.00,,,0.00,,2013-05-02 07:21:00,
2013-05-02 03:32:00,42.0,40.0,30.38,WSW,238,0.0,0.0,92,0.00,,,0.00,,2013-05-02 07:32:00,
2013-05-02 03:42:00,41.0,39.0,30.38,WSW,238,0.0,0.0,92,0.00,,,0.00,,2013-05-02 07:42:00,
2013-05-02 03:52:00,41.0,39.0,30.38,WSW,238,0.0,0.0,92,0.00,,,0.00,,2013-05-02 07:52:00,
2013-05-02 04:02:00,41.0,39.0,30.38,WSW,238,0.0,0.0,92,0.00,,,0.00,,2013-05-02 08:02:00,
2013-05-02 04:11:00,41.0,39.0,30.37,WSW,238,0.0,0.0,93,0.00,,,0.00,,2013-05-02 08:11:00,
2013-05-02 04:22:00,41.0,39.0,30.37,WSW,238,0.0,0.0,93,0.00,,,0.00,,2013-05-02 08:22:00,
2013-05-02 04:32:00,41.0,39.0,30.37,WSW,238,0.0,0.0,93,0.00,,,0.00,,2013-05-02 08:32:00,
2013-05-02 04:42:00,41.0,39.0,30.37,WSW,238,0.0,0.0,93,0.00,,,0.00,,2013-05-02 08:42:00,
2013-05-02 04:52:00,41.0,39.0,30.38,WSW,238,0.0,1.0,93,0.00,,,0.00,,2013-05-02 08:52:00,
2013-05-02 05:02:00,41.0,39.0,30.38,WSW,238,0.0,0.0,93,0.00,,,0.00,,2013-05-02 09:02:00,
2013-05-02 05:12:00,41.0,39.0,30.38,WSW,238,0.0,0.0,93,0.00,,,0.00,,2013-05-02 09:12:00,
2013-05-02 05:21:00,41.0,39.0,30.38,WSW,238,0.0,0.0,93,0.00,,,0.00,,2013-05-02 09:21:00,
2013-05-02 05:32:00,41.0,39.0,30.38,WSW,238,0.0,0.0,94,0.00,,,0.00,,2013-05-02 09:32:00,
2013-05-02 05:42:00,41.0,39.0,30.38,WSW,238,0.0,0.0,94,0.00,,,0.00,,2013-05-02 09:42:00,
2013-05-02 05:52:00,41.0,39.0,30.38,WSW,238,0.0,0.0,94,0.00,,,0.00,,2013-05-02 09:52:00,
2013-05-02 06:03:00,41.0,39.0,30.39,WSW,238,0.0,0.0,94,0.00,,,0.00,,2013-05-02 10:03:00,
2013-05-02 06:12:00,41.0,39.0,30.39,WSW,238,0.0,0.0,94,0.00,,,0.00,,2013-05-02 10:12:00,
2013-05-02 06:22:00,40.0,38.0,30.39,WSW,238,0.0,0.0,94,0.00,,,0.00,,2013-05-02 10:22:00,
2013-05-02 06:33:00,40.0,38.0,30.39,WSW,238,0.0,0.0,94,0.00,,,0.00,,2013-05-02 10:33:00,
2013-05-02 06:42:00,40.0,38.0,30.39,WSW,238,0.0,0.0,94,0.00,,,0.00,,2013-05-02 10:42:00,
2013-05-02 06:52:00,41.0,40.0,30.39,WSW,238,0.0,0.0,95,0.00,,,0.00,,2013-05-02 10:52:00,
2013-05-02 07:02:00,42.0,41.0,30.39,WSW,238,0.0,0.0,95,0.00,,,0.00,,2013-05-02 11:02:00,
2013-05-02 07:12:00,42.0,41.0,30.39,WSW,238,0.0,0.0,95,0.00,,,0.00,,2013-05-02 11:12:00,
2013-05-02 07:22:00,43.0,42.0,30.39,WSW,238,0.0,0.0,95,0.00,,,0.00,,2013-05-02 11:22:00,
2013-05-02 07:32:00,44.0,43.0,30.40,WSW,238,0.0,1.0,95,0.00,,,0.00,,2013-05-02 11:32:00,
2013-05-02 07:42:00,44.0,43.0,30.40,WSW,238,0.0,1.0,95,0.00,,,0.00,,2013-05-02 11:42:00,
2013-05-02 07:52:00,45.0,44.0,30.40,WSW,238,0.0,0.0,95,0.00,,,0.00,,2013-05-02 11:52:00,
2013-05-02 08:01:00,48.0,46.0,30.41,WSW,238,0.0,0.0,93,0.00,,,0.00,,2013-05-02 12:01:00,
2013-05-02 08:11:00,48.0,46.0,30.41,WSW,238,0.0,0.0,93,0.00,,,0.00,,2013-05-02 12:11:00,
2013-05-02 08:21:00,51.0,44.0,30.40,WSW,238,0.0,1.0,77,0.00,,,0.00,,2013-05-02 12:21:00,
2013-05-02 08:32:00,55.0,43.0,30.41,WSW,238,0.0,1.0,63,0.00,,,0.00,,2013-05-02 12:32:00,
2013-05-02 08:42:00,55.0,43.0,30.41,WSW,238,0.0,1.0,63,0.00,,,0.00,,2013-05-02 12:42:00,
2013-05-02 08:52:00,56.0,40.0,30.41,SE,124,0.0,1.0,55,0.00,,,0.00,,2013-05-02 12:52:00,
2013-05-02 09:01:00,57.0,39.0,30.42,ESE,113,0.0,4.0,51,0.00,,,0.00,,2013-05-02 13:01:00,
2013-05-02 09:11:00,57.0,39.0,30.42,ESE,113,0.0,4.0,51,0.00,,,0.00,,2013-05-02 13:11:00,
2013-05-02 09:21:00,57.0,38.0,30.41,SSE,148,0.0,5.0,48,0.00,,,0.00,,2013-05-02 13:21:00,
2013-05-02 09:32:00,58.0,38.0,30.41,East,82,1.0,5.0,48,0.00,,,0.00,,2013-05-02 13:32:00,
2013-05-02 09:42:00,58.0,38.0,30.41,East,82,1.0,5.0,48,0.00,,,0.00,,2013-05-02 13:42:00,
2013-05-02 09:52:00,59.0,39.0,30.42,East,90,1.0,5.0,47,0.00,,,0.00,,2013-05-02 13:52:00,
2013-05-02 10:02:00,60.0,39.0,30.42,East,89,0.0,6.0,45,0.00,,,0.00,,2013-05-02 14:02:00,
2013-05-02 10:11:00,60.0,39.0,30.42,East,89,0.0,6.0,45,0.00,,,0.00,,2013-05-02 14:11:00,
2013-05-02 10:22:00,61.0,39.0,30.41,ENE,74,0.0,4.0,44,0.00,,,0.00,,2013-05-02 14:22:00,
2013-05-02 10:32:00,62.0,40.0,30.42,East,83,0.0,4.0,44,0.00,,,0.00,,2013-05-02 14:32:00,
2013-05-02 10:42:00,62.0,40.0,30.42,East,83,0.0,4.0,44,0.00,,,0.00,,2013-05-02 14:42:00,
2013-05-02 10:52:00,62.0,39.0,30.42,SSW,207,1.0,10.0,42,0.00,,,0.00,,2013-05-02 14:52:00,
2013-05-02 11:02:00,62.0,39.0,30.42,SE,140,0.0,6.0,42,0.00,,,0.00,,2013-05-02 15:02:00,
2013-05-02 11:12:00,62.0,39.0,30.42,SE,140,0.0,6.0,42,0.00,,,0.00,,2013-05-02 15:12:00,
2013-05-02 11:22:00,62.0,39.0,30.42,SE,140,0.0,6.0,42,0.00,,,0.00,,2013-05-02 15:22:00,
2013-05-02 11:33:00,64.0,39.0,30.42,SSE,168,0.0,9.0,39,0.00,,,0.00,,2013-05-02 15:33:00,
2013-05-02 11:43:00,64.0,39.0,30.42,SSE,168,0.0,9.0,39,0.00,,,0.00,,2013-05-02 15:43:00,
2013-05-02 12:03:00,65.0,38.0,30.41,East,90,2.0,7.0,37,0.00,,,0.00,,2013-05-02 16:03:00,
2013-05-02 12:13:00,65.0,38.0,30.41,East,90,2.0,7.0,37,0.00,,,0.00,,2013-05-02 16:13:00,
2013-05-02 12:22:00,66.0,37.0,30.40,ENE,69,0.0,8.0,34,0.00,,,0.00,,2013-05-02 16:22:00,
2013-05-02 12:32:00,67.0,38.0,30.40,South,169,1.0,6.0,35,0.00,,,0.00,,2013-05-02 16:32:00,
2013-05-02 12:43:00,67.0,37.0,30.39,SE,141,1.0,6.0,33,0.00,,,0.00,,2013-05-02 16:43:00,
2013-05-02 12:52:00,67.0,37.0,30.39,SE,141,1.0,6.0,33,0.00,,,0.00,,2013-05-02 16:52:00,
2013-05-02 13:02:00,68.0,38.0,30.39,ESE,113,2.0,7.0,33,0.00,,,0.00,,2013-05-02 17:02:00,
2013-05-02 13:12:00,68.0,37.0,30.39,NE,55,0.0,13.0,32,0.00,,,0.00,,2013-05-02 17:12:00,
2013-05-02 13:22:00,68.0,37.0,30.39,NE,55,0.0,13.0,32,0.00,,,0.00,,2013-05-02 17:22:00,
2013-05-02 13:32:00,69.0,37.0,30.38,WSW,255,3.0,6.0,31,0.00,,,0.00,,2013-05-02 17:32:00,
2013-05-02 13:42:00,69.0,37.0,30.38,WSW,255,3.0,6.0,31,0.00,,,0.00,,2013-05-02 17:42:00,
2013-05-02 13:52:00,70.0,38.0,30.37,ENE,75,0.0,7.0,31,0.00,,,0.00,,2013-05-02 17:52:00,
2013-05-02 14:01:00,71.0,40.0,30.37,SSE,157,1.0,14.0,32,0.00,,,0.00,,2013-05-02 18:01:00,
2013-05-02 14:11:00,71.0,40.0,30.37,SSE,157,1.0,14.0,32,0.00,,,0.00,,2013-05-02 18:11:00,
2013-05-02 14:22:00,70.0,40.0,30.37,ENE,68,3.0,11.0,33,0.00,,,0.00,,2013-05-02 18:22:00,
2013-05-02 14:32:00,72.0,41.0,30.37,SSE,150,4.0,11.0,32,0.00,,,0.00,,2013-05-02 18:32:00,
2013-05-02 14:42:00,72.0,41.0,30.37,SSE,150,4.0,11.0,32,0.00,,,0.00,,2013-05-02 18:42:00,
2013-05-02 14:52:00,71.0,39.0,30.36,SE,132,3.0,9.0,31,0.00,,,0.00,,2013-05-02 18:52:00,
2013-05-02 15:01:00,72.0,39.0,30.36,ENE,77,2.0,7.0,30,0.00,,,0.00,,2013-05-02 19:01:00,
2013-05-02 15:11:00,72.0,39.0,30.36,ENE,77,2.0,7.0,30,0.00,,,0.00,,2013-05-02 19:11:00,
2013-05-02 15:22:00,72.0,40.0,30.35,NE,43,1.0,13.0,31,0.00,,,0.00,,2013-05-02 19:22:00,
2013-05-02 15:32:00,73.0,41.0,30.35,East,85,2.0,5.0,31,0.00,,,0.00,,2013-05-02 19:32:00,
2013-05-02 15:42:00,73.0,41.0,30.35,East,85,2.0,5.0,31,0.00,,,0.00,,2013-05-02 19:42:00,
2013-05-02 15:52:00,72.0,40.0,30.35,SE,139,2.0,10.0,31,0.00,,,0.00,,2013-05-02 19:52:00,
2013-05-02 16:02:00,72.0,41.0,30.35,SE,144,1.0,14.0,32,0.00,,,0.00,,2013-05-02 20:02:00,
2013-05-02 16:11:00,73.0,41.0,30.34,SSE,166,0.0,5.0,32,0.00,,,0.00,,2013-05-02 20:11:00,
2013-05-02 16:22:00,73.0,41.0,30.34,SSE,166,0.0,5.0,32,0.00,,,0.00,,2013-05-02 20:22:00,
2013-05-02 16:32:00,73.0,41.0,30.33,South,187,3.0,7.0,31,0.00,,,0.00,,2013-05-02 20:32:00,
2013-05-02 16:41:00,73.0,41.0,30.33,South,187,3.0,7.0,31,0.00,,,0.00,,2013-05-02 20:41:00,
2013-05-02 16:52:00,73.0,41.0,30.33,SE,126,1.0,9.0,31,0.00,,,0.00,,2013-05-02 20:52:00,
2013-05-02 17:01:00,72.0,40.0,30.33,WNW,289,3.0,11.0,31,0.00,,,0.00,,2013-05-02 21:01:00,
2013-05-02 17:12:00,72.0,41.0,30.33,SSW,198,2.0,10.0,32,0.00,,,0.00,,2013-05-02 21:12:00,
2013-05-02 17:21:00,72.0,41.0,30.33,SSW,198,2.0,10.0,32,0.00,,,0.00,,2013-05-02 21:21:00,
2013-05-02 17:33:00,72.0,43.0,30.32,WSW,258,3.0,11.0,35,0.00,,,0.00,,2013-05-02 21:33:00,
2013-05-02 17:42:00,72.0,43.0,30.32,WSW,258,3.0,11.0,35,0.00,,,0.00,,2013-05-02 21:42:00,
2013-05-02 17:53:00,72.0,43.0,30.32,South,179,2.0,9.0,35,0.00,,,0.00,,2013-05-02 21:53:00,
2013-05-02 18:03:00,72.0,43.0,30.32,WNW,292,1.0,10.0,35,0.00,,,0.00,,2013-05-02 22:03:00,
2013-05-02 18:12:00,72.0,43.0,30.32,WNW,292,1.0,10.0,35,0.00,,,0.00,,2013-05-02 22:12:00,
2013-05-02 18:22:00,71.0,41.0,30.32,South,182,3.0,7.0,34,0.00,,,0.00,,2013-05-02 22:22:00,
2013-05-02 18:32:00,71.0,42.0,30.32,West,281,6.0,10.0,35,0.00,,,0.00,,2013-05-02 22:32:00,
2013-05-02 18:42:00,71.0,42.0,30.32,West,281,6.0,10.0,35,0.00,,,0.00,,2013-05-02 22:42:00,
2013-05-02 18:53:00,70.0,41.0,30.31,SSW,195,2.0,11.0,35,0.00,,,0.00,,2013-05-02 22:53:00,
2013-05-02 19:02:00,70.0,42.0,30.31,SSW,198,0.0,11.0,36,0.00,,,0.00,,2013-05-02 23:02:00,
2013-05-02 19:11:00,70.0,42.0,30.31,SSW,198,0.0,11.0,36,0.00,,,0.00,,2013-05-02 23:11:00,
2013-05-02 19:22:00,69.0,41.0,30.32,SW,232,2.0,9.0,36,0.00,,,0.00,,2013-05-02 23:22:00,
2013-05-02 19:32:00,68.0,41.0,30.31,WSW,255,0.0,4.0,37,0.00,,,0.00,,2013-05-02 23:32:00,
2013-05-02 19:42:00,68.0,41.0,30.31,WSW,255,0.0,4.0,37,0.00,,,0.00,,2013-05-02 23:42:00,
2013-05-02 19:52:00,67.0,40.0,30.31,WSW,252,2.0,7.0,37,0.00,,,0.00,,2013-05-02 23:52:00,
2013-05-02 20:01:00,66.0,40.0,30.30,West,274,0.0,3.0,39,0.00,,,0.00,,2013-05-03 00:01:00,
2013-05-02 20:11:00,65.0,40.0,30.30,West,274,0.0,2.0,40,0.00,,,0.00,,2013-05-03 00:11:00,
2013-05-02 20:21:00,65.0,40.0,30.30,West,274,0.0,2.0,40,0.00,,,0.00,,2013-05-03 00:21:00,
2013-05-02 20:31:00,63.0,42.0,30.31,West,274,0.0,1.0,47,0.00,,,0.00,,2013-05-03 00:31:00,
2013-05-02 20:42:00,63.0,42.0,30.31,West,274,0.0,1.0,47,0.00,,,0.00,,2013-05-03 00:42:00,
2013-05-02 20:52:00,61.0,45.0,30.31,West,274,0.0,1.0,55,0.00,,,0.00,,2013-05-03 00:52:00,
2013-05-02 21:01:00,59.0,44.0,30.30,West,274,0.0,0.0,57,0.00,,,0.00,,2013-05-03 01:01:00,
2013-05-02 21:11:00,59.0,44.0,30.30,West,274,0.0,0.0,57,0.00,,,0.00,,2013-05-03 01:11:00,
2013-05-02 21:21:00,58.0,44.0,30.31,West,274,0.0,1.0,59,0.00,,,0.00,,2013-05-03 01:21:00,
2013-05-02 21:32:00,57.0,45.0,30.30,West,274,0.0,0.0,63,0.00,,,0.00,,2013-05-03 01:32:00,
2013-05-02 21:42:00,57.0,45.0,30.30,West,274,0.0,0.0,63,0.00,,,0.00,,2013-05-03 01:42:00,
2013-05-02 21:52:00,57.0,44.0,30.30,West,274,0.0,0.0,62,0.00,,,0.00,,2013-05-03 01:52:00,
2013-05-02 22:01:00,56.0,44.0,30.29,West,274,0.0,0.0,65,0.00,,,0.00,,2013-05-03 02:01:00,
2013-05-02 22:11:00,56.0,44.0,30.29,West,274,0.0,0.0,65,0.00,,,0.00,,2013-05-03 02:11:00,
2013-05-02 22:22:00,55.0,44.0,30.31,West,274,0.0,0.0,67,0.00,,,0.00,,2013-05-03 02:22:00,
2013-05-02 22:32:00,54.0,44.0,30.31,West,274,0.0,0.0,69,0.00,,,0.00,,2013-05-03 02:32:00,
2013-05-02 22:42:00,54.0,44.0,30.31,West,274,0.0,0.0,69,0.00,,,0.00,,2013-05-03 02:42:00,
2013-05-02 22:52:00,54.0,44.0,30.30,West,274,0.0,0.0,70,0.00,,,0.00,,2013-05-03 02:52:00,
2013-05-02 23:01:00,53.0,43.0,30.29,West,274,0.0,1.0,70,0.00,,,0.00,,2013-05-03 03:01:00,
2013-05-02 23:11:00,53.0,44.0,30.30,West,274,0.0,0.0,72,0.00,,,0.00,,2013-05-03 03:11:00,
2013-05-02 23:21:00,53.0,44.0,30.30,West,274,0.0,0.0,72,0.00,,,0.00,,2013-05-03 03:21:00,
2013-05-02 23:33:00,52.0,43.0,30.29,West,274,0.0,0.0,72,0.00,,,0.00,,2013-05-03 03:33:00,
2013-05-02 23:42:00,52.0,43.0,30.29,West,274,0.0,0.0,72,0.00,,,0.00,,2013-05-03 03:42:00,
2013-05-02 23:53:00,52.0,44.0,30.29,West,274,0.0,0.0,74,0.00,,,0.00,,2013-05-03 03:53:00,